This is the latest recevied weather packets stored in our database for station/object DC4AT. If no packets are shown the sender has not sent any weather packets the latest 10 day(s).
| Time | Temp. | Humidity | Pressure | Rain* | Wind** | Luminosity | Snow |
|---|---|---|---|---|---|---|---|
| 1777920216 | 15° C | 84% | 1013.1 hPa | 0 mm | - | 0 W/m² | - |
| 1777919616 | 15° C | 85% | 1013.2 hPa | 0 mm | - | 0 W/m² | - |
| 1777919016 | 15.56° C | 84% | 1012.9 hPa | 0 mm | - | 0 W/m² | - |
| 1777918416 | 16.11° C | 82% | 1012.7 hPa | 0 mm | - | 0 W/m² | - |
| 1777917816 | 16.11° C | 78% | 1012.7 hPa | 0 mm | - | 0 W/m² | - |
| 1777916616 | 17.22° C | 75% | 1012.2 hPa | 0 mm | - | 16 W/m² | - |
| 1777916016 | 17.22° C | 73% | 1012 hPa | 0 mm | - | 23 W/m² | - |
| 1777915416 | 17.22° C | 74% | 1011.9 hPa | 0 mm | - | 37 W/m² | - |
| 1777914816 | 17.22° C | 75% | 1011.6 hPa | 0 mm | - | 44 W/m² | - |
| 1777914216 | 17.22° C | 75% | 1011.5 hPa | 0 mm | - | 60 W/m² | - |
| 1777913616 | 17.22° C | 73% | 1011.5 hPa | 0 mm | - | 63 W/m² | - |
| 1777913016 | 17.78° C | 71% | 1011.4 hPa | 0 mm | - | 53 W/m² | - |
| 1777912416 | 18.33° C | 71% | 1011.5 hPa | 0 mm | - | 46 W/m² | - |
| 1777911216 | 19.44° C | 68% | 1011.7 hPa | 0 mm | - | 51 W/m² | - |
| 1777910616 | 20° C | 69% | 1011.6 hPa | 0 mm | - | 69 W/m² | - |
| 1777910016 | 20° C | 67% | 1011.5 hPa | 0 mm | - | 88 W/m² | - |
| 1777909416 | 20.56° C | 64% | 1011.5 hPa | 0 mm | - | 97 W/m² | - |
| 1777908816 | 21.11° C | 62% | 1011.6 hPa | 0 mm | - | 105 W/m² | - |
| 1777908216 | 21.11° C | 61% | 1011.5 hPa | 0 mm | - | 91 W/m² | - |
| 1777907616 | 21.11° C | 61% | 1011.6 hPa | 0 mm | - | 90 W/m² | - |
| 1777907016 | 20.56° C | 58% | 1011.7 hPa | 0 mm | - | 121 W/m² | - |
| 1777906416 | 20.56° C | 59% | 1011.7 hPa | 0 mm | - | 144 W/m² | - |
| 1777905816 | 20.56° C | 56% | 1011.7 hPa | 0 mm | - | 132 W/m² | - |
| 1777905216 | 20.56° C | 56% | 1011.8 hPa | 0 mm | - | 165 W/m² | - |
| 1777904616 | 21.11° C | 55% | 1011.9 hPa | 0 mm | - | 188 W/m² | - |
* Rain latest hour (hover to see other rain measurements)
** Current wind speed in m/s (hover to see current wind gust speed)